Weather History for KROG - January, 2012

Change the Weather History Date:

Wednesday, January 4, 2012

  Actual Average Record
Temperature  
Mean Temperature 45 °F -  
Max Temperature 55 °F 43 °F 66 °F (1997)
Min Temperature 35 °F 27 °F 3 °F (1999)
Degree Days  
Heating Degree Days 20    
Moisture  
Dew Point 24 °F    
Average Humidity 46    
Maximum Humidity 57    
Minimum Humidity 35    
Precipitation  
Precipitation 0.00 in - - ()
Sea Level Pressure  
Sea Level Pressure 30.24 in    
Wind  
Wind Speed 9 mph (WSW)    
Max Wind Speed 16 mph    
Max Gust Speed 20 mph    
Visibility 10 miles    
Events      
Averages and records for this station are not official NWS values.
T = Trace of Precipitation, MM = Missing Value Source: NWS Daily Summary

Daily Weather History Graph

Daily Weather History Graph

Search for Another Location

Airport or City:

Trip Planner

Search our weather history database for the weather conditions in past years. The results will help you decide how hot, cold, wet, or windy it might be!

Date:

Astronomy

Jan. 04, 2012 Rise Set
Actual Time 7:28 AM CST 5:14 PM CST
Civil Twilight 6:59 AM CST 5:42 PM CST
Nautical Twilight 6:27 AM CST 6:14 PM CST
Astronomical Twilight 5:56 AM CST 6:46 PM CST
Moon 1:36 PM CST 3:18 AM CST
Length of Visible Light 10h 42m
Length of Day
9h 45m
Waxing Gibbous, 81% of the Moon is Illuminated
Jan 4
Waxing Gibbous
Jan 9
Full
Jan 16
Last Quarter
Jan 23
New
Jan 30
First Quarter

Hourly Weather History & Observations

Time (CST) Temp. Windchill Dew Point Humidity Pressure Visibility Wind Dir Wind Speed Gust Speed Precip Events Conditions
12:57 AM 39.9 °F 32.5 °F 17.1 °F 40% 30.16 in 10.0 mi SSW 12.7 mph - N/A   Clear
1:57 AM 39.0 °F 31.8 °F 18.0 °F 43% 30.14 in 10.0 mi South 11.5 mph - N/A   Clear
2:57 AM 37.9 °F 30.5 °F 18.0 °F 45% 30.14 in 10.0 mi SSW 11.5 mph - N/A   Clear
3:57 AM 39.0 °F 34.8 °F 19.9 °F 46% 30.15 in 10.0 mi SW 5.8 mph - N/A   Clear
4:57 AM 39.0 °F 34.0 °F 19.9 °F 46% 30.17 in 10.0 mi West 6.9 mph - N/A   Clear
5:57 AM 37.0 °F 31.0 °F 19.9 °F 50% 30.20 in 10.0 mi WSW 8.1 mph - N/A   Clear
6:57 AM 36.0 °F 31.1 °F 19.9 °F 52% 30.22 in 10.0 mi WSW 5.8 mph - N/A   Clear
7:57 AM 35.1 °F 30.1 °F 19.9 °F 54% 30.25 in 10.0 mi WSW 5.8 mph - N/A   Clear
9:57 AM 45.0 °F 40.6 °F 27.0 °F 49% 30.29 in 10.0 mi WNW 8.1 mph - N/A   Clear
10:57 AM 46.9 °F - 28.0 °F 48% 30.28 in 10.0 mi NW 10.4 mph - N/A   Clear
11:57 AM 50.0 °F - 28.0 °F 43% 30.26 in 10.0 mi NW 6.9 mph - N/A   Clear
1:57 PM 55.0 °F - 28.0 °F 35% 30.22 in 10.0 mi West 8.1 mph - N/A   Clear
2:57 PM 55.0 °F - 28.0 °F 35% 30.22 in 10.0 mi West 16.1 mph 19.6 mph N/A   Clear
3:57 PM 53.1 °F - 26.1 °F 35% 30.23 in 10.0 mi WNW 9.2 mph - N/A   Clear
4:57 PM 50.0 °F - 28.0 °F 43% 30.25 in 10.0 mi West 8.1 mph - N/A   Clear
5:57 PM 46.0 °F 42.5 °F 27.0 °F 47% 30.26 in 10.0 mi West 6.9 mph - N/A   Clear
6:57 PM 45.0 °F 43.5 °F 26.1 °F 48% 30.30 in 10.0 mi WNW 3.5 mph - N/A   Clear
7:57 PM 41.0 °F - 26.1 °F 55% 30.31 in 10.0 mi Calm Calm - N/A   Clear
8:57 PM 42.1 °F 40.2 °F 25.0 °F 51% 30.31 in 10.0 mi WSW 3.5 mph - N/A   Clear
9:57 PM 44.1 °F 42.5 °F 24.1 °F 45% 30.32 in 10.0 mi West 3.5 mph - N/A   Clear
10:57 PM 37.9 °F 34.4 °F 24.1 °F 57% 30.32 in 10.0 mi SW 4.6 mph - N/A   Clear